Weather History for Winner, SD

Change the Weather History Date:

Wednesday, May 8, 2013

  Actual Average Record
Temperature  
Mean Temperature 58 °F 56 °F  
Max Temperature 73 °F 67 °F 89 °F (2011)
Min Temperature 43 °F 44 °F 39 °F (2014)
Degree Days  
Heating Degree Days 7 10  
Month to date heating degree days 132 88  
Since 1 July heating degree days 6534 6492  
Cooling Degree Days 0 1  
Month to date cooling degree days 0 3  
Year to date cooling degree days 2 5  
Growing Degree Days 8 (Base 50)    
Moisture  
Dew Point 48 °F    
Average Humidity 67    
Maximum Humidity 93    
Minimum Humidity 41    
Precipitation  
Precipitation 0.04 in 0.10 in 0.47 in (2014)
Month to date precipitation 0.25 0.91  
Year to date precipitation 1.71 5.54  
Sea Level Pressure  
Sea Level Pressure 29.95 in    
Wind  
Wind Speed 7 mph (NNW)    
Max Wind Speed 25 mph    
Max Gust Speed 29 mph    
Visibility 7 miles    
Events Fog , Rain , Thunderstorm    
T = Trace of Precipitation, MM = Missing Value Source: NWS Daily Summary

Daily Weather History Graph

Daily Weather History Graph

Search for Another Location

Airport:

Trip Planner

Search our weather history database for the weather conditions in past years. The results will help you decide how hot, cold, wet, or windy it might be!

Date:

Astronomy

May. 08, 2013 Rise Set
Actual Time 6:22 AM CDT 8:49 PM CDT
Civil Twilight 5:50 AM CDT 9:21 PM CDT
Nautical Twilight 5:10 AM CDT 10:02 PM CDT
Astronomical Twilight 4:25 AM CDT 10:47 PM CDT
Moon 5:34 AM CDT (5/8) 7:48 PM CDT (5/8)
Length of Visible Light 15h 31m
Length of Day
14h 26m
Waning Crescent, 2% of the Moon is Illuminated
May 8
Waning Crescent
May 9
New
May 17
First Quarter
May 24
Full
May 31
Last Quarter

Hourly Weather History & Observations

Time (CDT) Temp. Windchill Dew Point Humidity Pressure Visibility Wind Dir Wind Speed Gust Speed Precip Events Conditions
12:53 AM 55.9 °F - 48.9 °F 77% 29.86 in 10.0 mi South 16.1 mph 21.9 mph N/A   Clear
1:53 AM 53.1 °F - 48.9 °F 86% 29.89 in 10.0 mi North 3.5 mph - N/A   Mostly Cloudy
2:03 AM 53.6 °F - 48.2 °F 82% 29.91 in 10.0 mi Calm Calm - N/A   Scattered Clouds
2:53 AM 52.0 °F - 48.0 °F 86% 29.88 in 10.0 mi Calm Calm - N/A   Clear
3:53 AM 50.0 °F - 48.0 °F 93% 29.89 in 10.0 mi West 3.5 mph - N/A   Clear
4:53 AM 46.0 °F 43.9 °F 45.0 °F 96% 29.91 in 9.0 mi South 4.6 mph - N/A   Clear
5:25 AM 46.4 °F 44.3 °F 44.6 °F 93% 29.92 in 2.0 mi SW 4.6 mph - N/A   Clear
5:35 AM 44.6 °F 42.2 °F 44.6 °F 100% 29.92 in 3.0 mi WSW 4.6 mph - N/A   Clear
5:53 AM 44.1 °F 40.8 °F 43.0 °F 96% 29.91 in 6.0 mi West 5.8 mph - N/A   Clear
6:24 AM 44.6 °F 42.2 °F 42.8 °F 93% 29.91 in 2.5 mi NW 4.6 mph - N/A   Clear
6:34 AM 44.6 °F 41.4 °F 42.8 °F 93% 29.91 in 0.8 mi NW 5.8 mph - N/A   Mist
6:53 AM 44.1 °F 41.5 °F 44.1 °F 100% 29.92 in 0.2 mi NNW 4.6 mph - 0.00 in Fog , Rain Rain
7:15 AM 46.4 °F 44.3 °F 44.6 °F 93% 29.93 in 1.5 mi West 4.6 mph - 0.00 in   Mostly Cloudy
7:32 AM 46.4 °F 44.3 °F 46.4 °F 100% 29.94 in 2.5 mi West 4.6 mph - 0.00 in   Overcast
7:39 AM 46.4 °F 44.3 °F 46.4 °F 100% 29.94 in 5.0 mi WSW 4.6 mph - 0.00 in   Overcast
7:46 AM 46.4 °F 45.2 °F 46.4 °F 100% 29.94 in 2.0 mi West 3.5 mph - 0.00 in   Overcast
7:48 AM 46.4 °F 45.2 °F 46.4 °F 100% 29.94 in 0.8 mi West 3.5 mph - 0.00 in   Mist
7:53 AM 46.9 °F - 46.9 °F 100% 29.94 in 0.2 mi Calm Calm - 0.00 in Fog Fog
8:53 AM 50.0 °F - 48.9 °F 96% 29.96 in 0.2 mi NW 6.9 mph - N/A Fog Fog
9:46 AM 51.8 °F - 51.8 °F 100% 29.98 in 2.0 mi NW 4.6 mph - N/A   Overcast
9:53 AM 54.0 °F - 52.0 °F 93% 29.98 in 7.0 mi North 5.8 mph - N/A   Overcast
10:26 AM 57.2 °F - 53.6 °F 88% 29.98 in 10.0 mi NNE 6.9 mph - N/A   Scattered Clouds
10:53 AM 63.0 °F - 53.1 °F 70% 29.97 in 10.0 mi North 6.9 mph 16.1 mph N/A   Clear
11:53 AM 66.0 °F - 51.1 °F 59% 29.97 in 10.0 mi ENE 8.1 mph - N/A   Partly Cloudy
12:53 PM 68.0 °F - 50.0 °F 52% 29.97 in 10.0 mi NE 5.8 mph - N/A   Mostly Cloudy
1:53 PM 69.1 °F - 48.0 °F 47% 29.96 in 10.0 mi Variable 5.8 mph - N/A   Scattered Clouds
2:53 PM 72.0 °F - 48.0 °F 43% 29.96 in 10.0 mi North 8.1 mph - N/A   Mostly Cloudy
3:53 PM 71.1 °F - 46.9 °F 42% 29.95 in 10.0 mi NE 11.5 mph - N/A   Mostly Cloudy
4:02 PM 69.8 °F - 46.4 °F 43% 29.96 in 10.0 mi ENE 25.3 mph 28.8 mph N/A Thunderstorm Mostly Cloudy
4:13 PM 62.6 °F - 51.8 °F 68% 29.97 in 4.0 mi NE 12.7 mph - 0.03 in Rain , Thunderstorm Thunderstorms and Rain
4:34 PM 64.4 °F - 53.6 °F 68% 29.97 in 10.0 mi NE 3.5 mph - 0.03 in   Mostly Cloudy
4:53 PM 66.9 °F - 50.0 °F 54% 29.96 in 10.0 mi North 5.8 mph - 0.03 in   Scattered Clouds
5:53 PM 66.9 °F - 52.0 °F 59% 29.97 in 6.0 mi North 10.4 mph - 0.00 in Rain Light Rain
6:53 PM 66.9 °F - 50.0 °F 54% 29.97 in 10.0 mi NNE 11.5 mph - 0.01 in   Partly Cloudy
7:53 PM 64.9 °F - 48.0 °F 54% 29.98 in 10.0 mi NE 12.7 mph - N/A   Scattered Clouds
8:53 PM 57.9 °F - 46.9 °F 67% 30.01 in 10.0 mi NNE 10.4 mph - N/A   Clear
9:53 PM 55.0 °F - 46.9 °F 74% 30.02 in 10.0 mi NNE 8.1 mph - N/A   Clear
10:53 PM 52.0 °F - 46.0 °F 80% 30.02 in 10.0 mi NNE 5.8 mph - N/A   Clear
11:53 PM 52.0 °F - 46.9 °F 83% 30.01 in 10.0 mi North 8.1 mph - N/A   Clear